Tracking 29932 objects as of 4-Dec-2024
HD Live streaming from Space Station
objects crossing your sky now

STARLINK-31046

Track STARLINK-31046 now!
10-day predictions
STARLINK-31046 is classified as:


NORAD ID: 58552
Int'l Code: 2023-192X
Perigee: 481.3 km
Apogee: 483.5 km
Inclination: 53.2 °
Period: 94.1 minutes
Semi major axis: 6853 km
RCS: Unknown
Launch date: December 8, 2023
Source: United States (US)
Launch site: AIR FORCE WESTERN TEST RANGE (AFWTR)
Your satellite tracking list
Your tracking list is empty




NASA's NSSDC Master Catalog

Two Line Element Set (TLE):
1 58552U 23192X   24338.52365262  .00000687  00000-0  35350-4 0  9994
2 58552  53.1617  45.1699 0001562 106.8680 253.2492 15.30183772 55371
Source of the keplerian elements: AFSPC